Weather History for Boscobel, WI

Change the Weather History Date:

Saturday, December 8, 2012

  Actual Average (KPDC) Record (KPDC)
Temperature  
Mean Temperature 29 °F -  
Max Temperature 39 °F 33 °F 50 °F (1999)
Min Temperature 19 °F 19 °F -7 °F (1976)
Degree Days  
Heating Degree Days 36    
Moisture  
Dew Point 22 °F    
Average Humidity 77    
Maximum Humidity 100    
Minimum Humidity 53    
Precipitation  
Precipitation 0.00 in - - ()
Sea Level Pressure  
Sea Level Pressure 30.06 in    
Wind  
Wind Speed 2 mph (ENE)    
Max Wind Speed 8 mph    
Max Gust Speed -    
Visibility 7 miles    
Events      
Averages and records for this station are not official NWS values.
T = Trace of Precipitation, MM = Missing Value Source: NWS Daily Summary

Daily Weather History Graph

Daily Weather History Graph

Search for Another Location

Airport:

Trip Planner

Search our weather history database for the weather conditions in past years. The results will help you decide how hot, cold, wet, or windy it might be!

Date:

Astronomy

Dec. 08, 2012 Rise Set
Actual Time 7:22 AM CST 4:27 PM CST
Civil Twilight 6:50 AM CST 4:59 PM CST
Nautical Twilight 6:14 AM CST 5:35 PM CST
Astronomical Twilight 5:39 AM CST 6:09 PM CST
Moon 1:40 AM CST (12/8) 1:03 PM CST (12/8)
Length of Visible Light 10h 09m
Length of Day
9h 05m
Waning Crescent, 28% of the Moon is Illuminated
Dec 8
Waning Crescent
Dec 13
New
Dec 19
First Quarter
Dec 28
Full
Jan 4
Last Quarter

Hourly Weather History & Observations

Time (CST) Temp. Windchill Dew Point Humidity Pressure Visibility Wind Dir Wind Speed Gust Speed Precip Events Conditions
12:53 AM 33.1 °F 28.7 °F 24.1 °F 70% 29.99 in 10.0 mi NE 4.6 mph - N/A   Overcast
1:53 AM 33.1 °F - 24.1 °F 70% 30.00 in 10.0 mi Calm Calm - N/A   Overcast
2:53 AM 32.0 °F - 24.1 °F 73% 30.01 in 10.0 mi Calm Calm - N/A   Overcast
3:53 AM 28.0 °F - 23.0 °F 81% 30.00 in 10.0 mi Calm Calm - N/A   Scattered Clouds
5:53 AM 21.9 °F - 19.0 °F 89% 30.04 in 5.0 mi Calm Calm - N/A   Clear
6:18 AM 21.2 °F - 19.4 °F 93% 30.02 in 2.5 mi Calm Calm - N/A   Clear
6:25 AM 21.2 °F - 19.4 °F 93% 30.02 in 8.0 mi Calm Calm - N/A   Clear
6:53 AM 19.9 °F - 18.0 °F 92% 30.06 in 3.0 mi Calm Calm - N/A   Clear
7:04 AM 19.4 °F - 19.4 °F 100% 30.03 in 1.8 mi Calm Calm - N/A   Clear
7:20 AM 19.4 °F - 17.6 °F 93% 30.04 in 3.0 mi Calm Calm - N/A   Clear
7:29 AM 19.4 °F - 17.6 °F 93% 30.04 in 1.8 mi Calm Calm - N/A   Clear
7:42 AM 19.4 °F - 19.4 °F 100% 30.04 in 2.0 mi Calm Calm - N/A   Clear
7:53 AM 21.0 °F - 18.0 °F 88% 30.07 in 2.0 mi Calm Calm - N/A   Clear
8:02 AM 21.2 °F - 19.4 °F 93% 30.05 in 1.5 mi Calm Calm - N/A   Clear
8:08 AM 21.2 °F - 19.4 °F 93% 30.05 in 3.0 mi Calm Calm - N/A   Clear
8:53 AM 28.0 °F - 24.1 °F 85% 30.08 in 5.0 mi Calm Calm - N/A   Clear
9:53 AM 33.1 °F 30.0 °F 24.1 °F 70% 30.10 in 10.0 mi ENE 3.5 mph - N/A   Clear
10:53 AM 36.0 °F - 25.0 °F 64% 30.09 in 10.0 mi Calm Calm - N/A   Clear
11:53 AM 37.9 °F 34.4 °F 25.0 °F 60% 30.07 in 10.0 mi NE 4.6 mph - N/A   Clear
12:53 PM 39.0 °F 36.8 °F 25.0 °F 57% 30.05 in 10.0 mi Variable 3.5 mph - N/A   Clear
1:53 PM 39.9 °F 36.7 °F 24.1 °F 53% 30.05 in 10.0 mi NNE 4.6 mph - N/A   Clear
2:53 PM 39.0 °F - 24.1 °F 55% 30.06 in 10.0 mi Calm Calm - N/A   Clear
3:53 PM 37.9 °F 35.5 °F 23.0 °F 55% 30.08 in 10.0 mi East 3.5 mph - N/A   Clear
4:53 PM 33.1 °F - 23.0 °F 66% 30.09 in 10.0 mi Calm Calm - N/A   Clear
5:53 PM 30.0 °F - 23.0 °F 75% 30.09 in 10.0 mi Calm Calm - N/A   Clear
6:53 PM 30.9 °F 27.5 °F 23.0 °F 72% 30.10 in 10.0 mi Variable 3.5 mph - N/A   Clear
7:53 PM 35.1 °F 30.1 °F 25.0 °F 67% 30.10 in 10.0 mi East 5.8 mph - N/A   Clear
8:53 PM 34.0 °F 27.2 °F 26.1 °F 73% 30.10 in 10.0 mi East 8.1 mph - N/A   Partly Cloudy
9:53 PM 34.0 °F 29.8 °F 26.1 °F 73% 30.11 in 10.0 mi East 4.6 mph - N/A   Mostly Cloudy
10:53 PM 33.1 °F 30.0 °F 27.0 °F 78% 30.10 in 10.0 mi ENE 3.5 mph - N/A   Overcast
11:53 PM 33.1 °F 30.0 °F 27.0 °F 78% 30.10 in 10.0 mi NE 3.5 mph - N/A   Overcast